Terminal Aerodrome Forecast
Issued by NWS

Current Version | Previous Version | Text Only | Print | Product List | Glossary Off
Versions: 1 2 3 4 5 6 7 8 9 10 11 12 13 14 15 16 17 18 19 20 21 22 23 24 25 26 27 28 29 30 31 32 33 34 35 36 37 38 39 40 41 42

097
FTUS41 KRNK 250719 AAA
TAFLWB
TAF AMD
KLWB 250719Z 2507/2606 00000KT P6SM -RA SCT030 OVC050
      TEMPO 2507/2509 4SM -SHRA BR OVC025
     FM251000 VRB03KT 5SM BR VCSH OVC020
     FM251500 24007KT P6SM BKN045
     FM251900 24008KT P6SM VCTS OVC030CB
     FM260100 29005KT P6SM BKN015=

USA.gov is the U.S. government's official web portal to all federal, state and local government web resources and services.